Location: *
(50.6089°N, 2.2719°E)
Time: 02:11:25
(UTC+00:00)

STARLINK-62 - Pass Details

Date: 18 October 2019
Orbit: 548 x 551 km, 53.0° (Epoch: 18 November)

Event Time Altitude Azimuth Distance (km) Brightness Sun altitude
Rises 19:09:54 0° 275° (W) 2,719 8.6 -22.3°
Reaches altitude 10° 19:12:10 10° 279° (W) 1,826 7.4 -22.7°
Maximum altitude 19:16:16 61° 0° (N) 630 3.8 -23.3°
Enters shadow 19:16:18 61° 3° (N) 630 3.8 -23.3°
